{"data":{"norad_id":57632,"epoch":"2026-09-20T04:54:52.960032Z","epoch_age_seconds":153129,"freshness":"FRESH","line1":"1 57632U 23122A   26263.20477963  .00003211  00000+0  12607-3 0  9995","line2":"2 57632  43.0033  74.1478 0000483 253.4779 106.6019 15.27600923171952","mean_motion":15.27600923,"eccentricity":4.83e-5,"inclination_deg":43.0033,"raan_deg":74.1478,"arg_perigee_deg":253.4779,"mean_anomaly_deg":106.6019,"bstar":0.00012607,"rev_number":17195,"period_min":94.265457575925,"perigee_km":482.6550535033,"apogee_km":483.31783802816,"semimajor_km":6861.1234457657,"source":"CELESTRAK","updated_at":"2026-09-21T09:00:33.664786Z"}}